FENGYUN 1C DEB

Satellite information

Favourite Embed

Satellite Type and Status

DEBRISIN ORBIT

Key statistics

Satellite FENGYUN 1C DEB at a glance.

Uptime

9616

Days in orbit

Revolutions

≈ 14.4

Per day

Orbit

SSO

Sun Synchronous Orbit

Inclination

98.2

Latest

Satellite identification and parameters

Extended collection of information and parameters for FENGYUN 1C DEB.

Object identification

Identified? True

Debris? True

Object name: FENGYUN 1C DEB

International designator: 1999-025AZU

Object number (NORAD): 30930

Object ID (CCSDS): 30930

Country: PEOPLES REPUBLIC OF CHINA (PRC)

Current information (Y/N): Y

RCS size: SMALL

Orbital parameters

Period: 100.206 minutes

Inclination: 98.2292 deg

SMA: 7146.417 km

Apoapsis: 846.949 km

Periapsis: 689.614 km

RAAN: 279.7305 deg

Eccentricy: 0.01100802

Argument of periapsis: 46.5501 deg

Mean anomaly: 8.557 deg

Mean motion: 14.3704468 rev/day

Mean motion (dot): 0.00002146 rev/day2

B* drag term: 0.00068800119 1/REarth

Two-line elements (TLE)

Creation date: Sept. 4, 2025, 10:13 a.m.

Reference frame: TEME

Reference center: EARTH

Epoch: Sept. 4, 2025, 1:33 a.m. UTC

TLE line 0: 0 FENGYUN 1C DEB

TLE line 1: 1 30930U 99025AZU 25247.06510338 .00002146 00000-0 68800-3 0 9994

TLE line 2: 2 30930 98.2292 279.7305 0110080 46.5501 8.5570 14.37044680969009

Live tracking on map

Real-time ground track for satellite FENGYUN 1C DEB.

In-orbit conjunctions

A list of the most updated potential collisions computed for object FENGYUN 1C DEB.

Target Orbit TCA Probability of collision Miss distance Type
SL-8 R/B LEO 2025-07-25 08:05:35 0.000370097 184.0 (m) ROCKET BODY
CZ-6A DEB LEO 2025-04-10 19:45:28 0.0005972563 64.0 (m) DEBRIS
NOAA 16 DEB SSO 2024-10-09 22:51:51 0.0001663124 62.0 (m) DEBRIS

Associated space launch

Chinese polar orbiting meteorological satellite

FENGYUN 1C DEB was lifted into orbit during the mission ‘Long March 4B | Feng Yun 1C’, on board a Long March 4B space rocket.

The launch took place on May 10, 1999, 1:33 a.m. from Launch Complex 7.

For more information about the launch, click the button.

Launch to space Long March 4B | Feng Yun 1C
Long March 4B | Feng Yun 1C

Agency: N/A

Status: Launch Successful

Launch date: May 10, 1999, 1:33 a.m. UTC

Rocket: Long March 4B

Launch pad: Launch Complex 7

Location: Taiyuan Satellite Launch Center, People's Republic of China

...

Latest news about this satellite

There are no fresh news available about this satellite. Check back as we update our databases every day.


Newsletter sign-up

Weekly statistics, charts and insights to help you stay on top of the space industry.